Weather History for Port Hedland, WE

Change the Weather History Date:

Sunday, January 20, 2013

  Actual Average Record
Temperature  
Mean Temperature 85 °F -  
Max Temperature 95 °F 97 °F 104 °F (1999)
Min Temperature 75 °F 78 °F 74 °F (2014)
Cooling Degree Days 20    
Growing Degree Days 35 (Base 50)    
Moisture  
Dew Point 77 °F    
Average Humidity 70    
Maximum Humidity 94    
Minimum Humidity 44    
Precipitation  
Precipitation 0.16 in 0.12 in - ()
Sea Level Pressure  
Sea Level Pressure 29.65 in    
Wind  
Wind Speed 13 mph ()    
Max Wind Speed 36 mph    
Max Gust Speed 47 mph    
Visibility 7.0 miles    
Events Rain    
Averages and records for this station are not official NWS values.
T = Trace of Precipitation, MM = Missing Value Source: Averaged Metar Reports

Daily Weather History Graph

Daily Weather History Graph

Search for Another Location

Airport:

Trip Planner

Search our weather history database for the weather conditions in past years. The results will help you decide how hot, cold, wet, or windy it might be!

Date:

Astronomy

Jan. 20, 2013 Rise Set
Actual Time 5:41 AM WST 6:51 PM WST
Civil Twilight 5:17 AM WST 7:15 PM WST
Nautical Twilight 4:48 AM WST 7:43 PM WST
Astronomical Twilight 4:19 AM WST 8:12 PM WST
Moon 1:17 PM WST (1/20) 12:02 AM WST (1/20)
Length of Visible Light 13h 58m
Length of Day
13h 10m
First Quarter, 61% of the Moon is Illuminated
Jan 20
First Quarter
Jan 27
Full
Feb 3
Last Quarter
Feb 10
New
Feb 18
First Quarter

Hourly Weather History & Observations

Time (WST) Temp. Heat Index Dew Point Humidity Pressure Visibility Wind Dir Wind Speed Gust Speed Precip Events Conditions
12:00 AM 86 °F - 80 °F 77% 29.62 in - West 12.7 mph - -  
12:00 AM 86.0 °F 101.9 °F 80.6 °F 84% 29.62 in 6.2 mi West 12.7 mph - N/A   Unknown
12:30 AM 86.0 °F 99.3 °F 78.8 °F 79% 29.59 in 6.2 mi West 15.0 mph - N/A   Unknown
1:00 AM 86.0 °F 101.9 °F 80.6 °F 84% 29.59 in 6.2 mi West 13.8 mph - N/A   Unknown
1:30 AM 86.0 °F 99.3 °F 78.8 °F 79% 29.59 in 6.2 mi West 11.5 mph - N/A   Unknown
2:00 AM 85 °F - 79 °F 79% 29.60 in - West 10.4 mph - -  
2:00 AM 86.0 °F 99.3 °F 78.8 °F 79% 29.59 in 6.2 mi West 10.4 mph - N/A   Scattered Clouds
2:30 AM 86.0 °F 99.3 °F 78.8 °F 79% 29.59 in 6.2 mi West 10.4 mph - N/A   Unknown
3:00 AM 85 °F - 79 °F 79% 29.60 in - West 10.4 mph - -  
3:00 AM 86.0 °F 99.3 °F 78.8 °F 79% 29.59 in 6.2 mi West 10.4 mph - N/A   Unknown
3:30 AM 86.0 °F 99.3 °F 78.8 °F 79% 29.59 in 6.2 mi West 10.4 mph - N/A   Unknown
4:00 AM 84.2 °F 96.1 °F 78.8 °F 84% 29.59 in 6.2 mi West 11.5 mph - N/A   Unknown
4:30 AM 84.2 °F 96.1 °F 78.8 °F 84% 29.59 in 6.2 mi West 11.5 mph - N/A   Unknown
5:00 AM 85 °F - 78 °F 76% 29.61 in - WNW 10.4 mph - -  
5:00 AM 84.2 °F 96.1 °F 78.8 °F 84% 29.59 in 6.2 mi WNW 10.4 mph - N/A   Unknown
5:30 AM 84.2 °F 96.1 °F 78.8 °F 84% 29.59 in 6.2 mi WNW 11.5 mph - N/A   Unknown
6:00 AM 85 °F - 78 °F 76% 29.63 in 16 mi West 10.4 mph - -   Scattered Clouds
6:00 AM 86.0 °F 99.3 °F 78.8 °F 79% 29.62 in 6.2 mi West 10.4 mph - N/A   Mostly Cloudy
6:30 AM 86.0 °F 99.3 °F 78.8 °F 79% 29.65 in 6.2 mi ENE 4.6 mph - N/A   Mostly Cloudy
7:00 AM 87.8 °F 102.5 °F 78.8 °F 75% 29.68 in 6.2 mi North 4.6 mph - N/A   Mostly Cloudy
7:30 AM 89.6 °F 104.7 °F 78.8 °F 70% 29.68 in 6.2 mi NNW 8.1 mph - N/A   Scattered Clouds
8:00 AM 91 °F - 79 °F 60% 29.68 in - NW 11.5 mph - -  
8:00 AM 91.4 °F 107.2 °F 78.8 °F 66% 29.68 in 6.2 mi NW 11.5 mph - N/A   Scattered Clouds
8:30 AM 89.6 °F 104.7 °F 78.8 °F 70% 29.71 in 6.2 mi NNW 11.5 mph - N/A   Scattered Clouds
9:00 AM 90 °F - 79 °F 62% 29.70 in 19 mi North 15.0 mph - -   Partly Cloudy
9:00 AM 89.6 °F 104.7 °F 78.8 °F 70% 29.68 in 6.2 mi North 15.0 mph - N/A   Scattered Clouds
9:30 AM 89.6 °F 104.7 °F 78.8 °F 70% 29.68 in 6.2 mi North 16.1 mph - N/A   Scattered Clouds
10:00 AM 89.6 °F 104.7 °F 78.8 °F 70% 29.68 in 6.2 mi North 17.3 mph - N/A   Scattered Clouds
10:30 AM 91.4 °F 105.1 °F 77.0 °F 63% 29.68 in 6.2 mi North 17.3 mph - N/A   Scattered Clouds
11:00 AM 94 °F - 77 °F 50% 29.68 in - NNW 16.1 mph - -  
11:00 AM 95.0 °F 109.7 °F 77.0 °F 56% 29.65 in 6.2 mi NNW 16.1 mph - N/A   Mostly Cloudy
11:30 AM 91.4 °F 105.1 °F 77.0 °F 63% 29.65 in 6.2 mi North 15.0 mph - N/A   Mostly Cloudy
12:00 PM 92 °F - 77 °F 54% 29.67 in 19 mi NNW 13.8 mph - -   Partly Cloudy
12:00 PM 93.2 °F 107.2 °F 77.0 °F 59% 29.65 in 6.2 mi NNW 13.8 mph - N/A   Mostly Cloudy
12:30 PM 95.0 °F 109.7 °F 77.0 °F 56% 29.65 in 6.2 mi NW 12.7 mph - N/A   Mostly Cloudy
1:00 PM 93.2 °F 107.2 °F 77.0 °F 59% 29.62 in 6.2 mi NNW 13.8 mph - N/A   Mostly Cloudy
1:30 PM 91.4 °F 105.1 °F 77.0 °F 63% 29.62 in 6.2 mi North 13.8 mph - N/A   Mostly Cloudy
2:00 PM 92 °F - 76 °F 50% 29.62 in - NNW 15.0 mph - -  
2:00 PM 91.4 °F 102.5 °F 75.2 °F 59% 29.62 in 6.2 mi NNW 15.0 mph - N/A   Mostly Cloudy
2:30 PM 91.4 °F 105.1 °F 77.0 °F 63% 29.59 in 6.2 mi NNW 16.1 mph - N/A   Mostly Cloudy
3:00 PM 92 °F - 77 °F 54% 29.60 in 19 mi NW 17.3 mph - -   Scattered Clouds
3:00 PM 91.4 °F 105.1 °F 77.0 °F 63% 29.59 in 6.2 mi NW 17.3 mph - N/A   Mostly Cloudy
3:30 PM 91.4 °F 105.1 °F 77.0 °F 63% 29.59 in 6.2 mi NW 18.4 mph - N/A   Unknown
4:00 PM 89.6 °F 102.2 °F 77.0 °F 66% 29.56 in 6.2 mi WNW 19.6 mph - N/A   Unknown
4:30 PM 89.6 °F 104.7 °F 78.8 °F 70% 29.59 in 6.2 mi WNW 19.6 mph - N/A   Unknown
5:00 PM 89 °F - 79 °F 67% 29.59 in - WNW 17.3 mph - -  
5:00 PM 89.6 °F 104.7 °F 78.8 °F 70% 29.56 in 6.2 mi WNW 17.3 mph - N/A   Unknown
5:30 PM 89.6 °F 102.2 °F 77.0 °F 66% 29.59 in 6.2 mi WNW 16.1 mph - N/A   Unknown
6:00 PM 89 °F - 70 °F 44% 29.62 in - WNW 13.8 mph - -  
6:00 PM 89.6 °F 94.7 °F 69.8 °F 52% 29.62 in 6.2 mi WNW 13.8 mph - N/A   Unknown
6:30 PM 87.8 °F 99.7 °F 77.0 °F 70% 29.62 in 6.2 mi WNW 15.0 mph - N/A   Unknown
7:00 PM 86.0 °F 95.1 °F 75.2 °F 70% 29.65 in 6.2 mi SW 10.4 mph - N/A   Unknown
7:30 PM 86.0 °F 93.4 °F 73.4 °F 66% 29.65 in 6.2 mi SW 10.4 mph - N/A   Unknown
8:00 PM 85 °F - 75 °F 65% 29.67 in - SSW 10.4 mph - -  
8:00 PM 84.2 °F 92.3 °F 75.2 °F 74% 29.65 in 6.2 mi SSW 10.4 mph - N/A   Scattered Clouds
8:30 PM 84.2 °F 89.6 °F 71.6 °F 66% 29.68 in 6.2 mi SSW 9.2 mph - N/A   Scattered Clouds
9:00 PM 85 °F - 71 °F 55% 29.72 in - South 10.4 mph - -  
9:00 PM 86.0 °F 91.8 °F 71.6 °F 62% 29.71 in 6.2 mi South 10.4 mph - N/A   Scattered Clouds
9:30 PM 86.0 °F 91.8 °F 71.6 °F 62% 29.71 in 6.2 mi SSE 10.4 mph - N/A   Scattered Clouds
10:01 PM 82.4 °F 86.3 °F 69.8 °F 66% 29.74 in 6.2 mi SE 19.6 mph 40.3 mph N/A Rain Light Rain Showers
10:03 PM 80.6 °F 84.6 °F 71.6 °F 74% 29.74 in 3.7 mi SE 21.9 mph 41.4 mph N/A   Mostly Cloudy
10:08 PM 78.8 °F - 71.6 °F 78% 29.74 in 1.5 mi ESE 35.7 mph 47.2 mph N/A   Mostly Cloudy
10:24 PM 75.2 °F - 73.4 °F 94% 29.74 in - ESE 27.6 mph 43.7 mph N/A Rain Light Rain Showers
10:38 PM 75.2 °F - 71.6 °F 89% 29.74 in 6.2 mi ESE 26.5 mph 38.0 mph N/A   Mostly Cloudy
11:00 PM 76 °F - 72 °F 84% 29.76 in - ESE 24.2 mph - -  
11:00 PM 77.0 °F - 71.6 °F 83% 29.74 in 6.2 mi ESE 24.2 mph - N/A   Scattered Clouds
11:30 PM 77.0 °F - 73.4 °F 89% 29.74 in 6.2 mi SE 26.5 mph - N/A   Mostly Cloudy
11:51 PM 75.2 °F - 73.4 °F 94% 29.74 in - ESE 24.2 mph 35.7 mph N/A   Overcast